• In Hungary
  • List of Countries
  • For 7 days
  • Water Temperature
  • Satellite Maps
  • Weather Map
  • News
  • Weather Widgets
  • user-avatar
    Login

    Hourly Weather Blagoevgrad

    Today, 22 October, Sunday

    Time Temperature Precipitation Wind Pressure Humidity
    00:00 +15°C° 0 mm 1 mps 720 mmHg 54%
    01:00 +14°C° 0 mm 1 mps 720 mmHg 55%
    02:00 +14°C° 0 mm 1 mps 720 mmHg 55%
    03:00 +14°C° 0 mm 1 mps 720 mmHg 56%
    04:00 +14°C° 0 mm 1 mps 720 mmHg 56%
    05:00 +13°C° 0 mm 1 mps 720 mmHg 57%
    06:00 +14°C° 0 mm 1 mps 720 mmHg 56%
    07:00 +15°C° 0 mm 1 mps 720 mmHg 56%
    08:00 +16°C° 0 mm 1 mps 720 mmHg 52%
    09:00 +19°C° 0 mm 1 mps 720 mmHg 47%
    10:00 +21°C° 0 mm 1 mps 720 mmHg 41%
    11:00 +23°C° 0 mm 1 mps 721 mmHg 36%
    12:00 +24°C° 0 mm 1 mps 720 mmHg 34%
    13:00 +24°C° 0 mm 1 mps 720 mmHg 33%
    14:00 +25°C° 0 mm 1 mps 720 mmHg 31%
    15:00 +24°C° 0 mm 1 mps 719 mmHg 35%
    16:00 +22°C° 0 mm 1 mps 719 mmHg 39%
    17:00 +21°C° 0 mm 1 mps 718 mmHg 43%
    18:00 +20°C° 0 mm 1 mps 718 mmHg 46%
    19:00 +18°C° 0 mm 1 mps 718 mmHg 50%
    20:00 +16°C° 0 mm 1 mps 718 mmHg 53%
    21:00 +15°C° 0 mm 1 mps 718 mmHg 55%
    22:00 +15°C° 0 mm 1 mps 717 mmHg 56%
    23:00 +14°C° 0 mm 2 mps 717 mmHg 58%

    Tomorrow, 23 October, Monday

    Time Temperature Precipitation Wind Pressure Humidity
    00:00 +14°C° 0 mm 2 mps 717 mmHg 60%
    01:00 +14°C° 0 mm 2 mps 717 mmHg 62%
    02:00 +14°C° 0 mm 2 mps 716 mmHg 64%
    03:00 +14°C° 0 mm 2 mps 716 mmHg 67%
    04:00 +13°C° 0 mm 2 mps 715 mmHg 69%
    05:00 +13°C° 0 mm 2 mps 715 mmHg 72%
    06:00 +13°C° 0.3 mm 2 mps 715 mmHg 73%
    07:00 +14°C° 0.3 mm 2 mps 714 mmHg 74%
    08:00 +14°C° 0.3 mm 2 mps 714 mmHg 75%
    09:00 +16°C° 0.1 mm 2 mps 714 mmHg 70%
    10:00 +17°C° 0.1 mm 3 mps 714 mmHg 66%
    11:00 +18°C° 0.1 mm 3 mps 714 mmHg 62%
    12:00 +19°C° 0.1 mm 3 mps 713 mmHg 62%
    13:00 +19°C° 0.1 mm 3 mps 713 mmHg 61%
    14:00 +19°C° 0.1 mm 3 mps 712 mmHg 61%
    15:00 +18°C° 1 mm 3 mps 712 mmHg 68%
    16:00 +17°C° 1 mm 2 mps 711 mmHg 74%
    17:00 +16°C° 1 mm 2 mps 711 mmHg 81%
    18:00 +15°C° 2.8 mm 2 mps 711 mmHg 84%
    19:00 +14°C° 2.8 mm 1 mps 711 mmHg 88%
    20:00 +13°C° 2.8 mm 1 mps 710 mmHg 91%
    21:00 +13°C° 1.3 mm 1 mps 710 mmHg 91%
    22:00 +13°C° 1.3 mm 1 mps 710 mmHg 90%
    23:00 +13°C° 1.3 mm 1 mps 710 mmHg 90%

    Day after tomorrow, 24 October, Tuesday

    Time Temperature Precipitation Wind Pressure Humidity
    00:00 +12°C° 0.5 mm 2 mps 710 mmHg 90%
    01:00 +12°C° 0.5 mm 2 mps 710 mmHg 90%
    02:00 +12°C° 0.5 mm 2 mps 710 mmHg 90%
    03:00 +12°C° 0.3 mm 2 mps 710 mmHg 90%
    04:00 +10°C° 0.3 mm 2 mps 710 mmHg 90%
    05:00 +10°C° 0.3 mm 2 mps 710 mmHg 90%
    06:00 +10°C° 0.2 mm 2 mps 710 mmHg 89%
    07:00 +10°C° 0.2 mm 2 mps 711 mmHg 88%
    08:00 +10°C° 0.2 mm 2 mps 711 mmHg 87%
    09:00 +12°C° 0.5 mm 2 mps 711 mmHg 84%
    10:00 +12°C° 0.5 mm 2 mps 712 mmHg 81%
    11:00 +13°C° 0.5 mm 2 mps 712 mmHg 78%
    12:00 +13°C° 0.3 mm 2 mps 712 mmHg 75%
    13:00 +14°C° 0.3 mm 2 mps 712 mmHg 73%
    14:00 +14°C° 0.3 mm 2 mps 712 mmHg 71%
    15:00 +14°C° 0.2 mm 2 mps 713 mmHg 73%
    16:00 +13°C° 0.2 mm 2 mps 713 mmHg 74%
    17:00 +12°C° 0.2 mm 3 mps 713 mmHg 76%
    18:00 +12°C° 0.1 mm 2 mps 714 mmHg 79%
    19:00 +12°C° 0.1 mm 2 mps 714 mmHg 83%
    20:00 +10°C° 0.1 mm 2 mps 715 mmHg 86%
    21:00 +10°C° 0.8 mm 3 mps 715 mmHg 86%
    22:00 +10°C° 0.8 mm 3 mps 716 mmHg 86%
    23:00 +10°C° 0.8 mm 3 mps 716 mmHg 87%

    25 October, Wednesday

    Time Temperature Precipitation Wind Pressure Humidity
    00:00 +10°C° 0.9 mm 3 mps 717 mmHg 87%
    01:00 +10°C° 0.9 mm 3 mps 717 mmHg 88%
    02:00 +10°C° 0.9 mm 3 mps 717 mmHg 89%
    03:00 +10°C° 1.5 mm 3 mps 718 mmHg 89%
    04:00 +10°C° 1.5 mm 3 mps 718 mmHg 90%
    05:00 +10°C° 1.5 mm 3 mps 718 mmHg 91%
    06:00 +10°C° 1.3 mm 3 mps 719 mmHg 90%
    07:00 +10°C° 1.3 mm 3 mps 720 mmHg 89%
    08:00 +10°C° 1.3 mm 3 mps 720 mmHg 89%
    09:00 +11°C° 0.4 mm 3 mps 721 mmHg 86%
    10:00 +11°C° 0.4 mm 3 mps 722 mmHg 84%
    11:00 +12°C° 0.4 mm 3 mps 723 mmHg 81%
    12:00 +12°C° 0.2 mm 3 mps 723 mmHg 79%
    13:00 +12°C° 0.2 mm 3 mps 723 mmHg 77%
    14:00 +13°C° 0.2 mm 3 mps 723 mmHg 75%
    15:00 +12°C° 0.2 mm 3 mps 724 mmHg 76%
    16:00 +12°C° 0.2 mm 3 mps 724 mmHg 78%
    17:00 +11°C° 0.2 mm 3 mps 724 mmHg 80%
    18:00 +12°C° 0 mm 2 mps 725 mmHg 82%
    19:00 +10°C° 0 mm 2 mps 725 mmHg 85%
    20:00 +9°C° 0 mm 2 mps 726 mmHg 87%
    21:00 +9°C° 0 mm 2 mps 726 mmHg 87%
    22:00 +8°C° 0 mm 2 mps 726 mmHg 87%
    23:00 +9°C° 0 mm 1 mps 726 mmHg 87%

    26 October, Thursday

    Time Temperature Precipitation Wind Pressure Humidity
    00:00 +9°C° 0 mm 1 mps 726 mmHg 87%
    01:00 +9°C° 0 mm 1 mps 726 mmHg 86%
    02:00 +9°C° 0 mm 1 mps 727 mmHg 86%
    03:00 +8°C° 0 mm 1 mps 727 mmHg 85%
    04:00 +8°C° 0 mm 1 mps 726 mmHg 85%
    05:00 +8°C° 0 mm 1 mps 726 mmHg 84%
    06:00 +9°C° 0 mm 1 mps 727 mmHg 83%
    07:00 +10°C° 0 mm 1 mps 727 mmHg 81%
    08:00 +10°C° 0 mm 1 mps 727 mmHg 79%
    09:00 +12°C° 0 mm 1 mps 727 mmHg 71%
    10:00 +15°C° 0 mm 1 mps 727 mmHg 64%
    11:00 +18°C° 0 mm 1 mps 727 mmHg 56%
    12:00 +18°C° 0 mm 2 mps 727 mmHg 52%
    13:00 +18°C° 0 mm 2 mps 726 mmHg 49%
    14:00 +19°C° 0 mm 2 mps 726 mmHg 45%
    15:00 +18°C° 0 mm 2 mps 726 mmHg 49%
    16:00 +18°C° 0 mm 1 mps 726 mmHg 54%
    17:00 +16°C° 0 mm 1 mps 725 mmHg 58%
    18:00 +15°C° 0 mm 1 mps 726 mmHg 61%
    19:00 +14°C° 0 mm 1 mps 726 mmHg 64%
    20:00 +12°C° 0 mm 1 mps 726 mmHg 67%
    21:00 +12°C° 0 mm 1 mps 726 mmHg 68%
    22:00 +12°C° 0 mm 1 mps 726 mmHg 69%
    23:00 +11°C° 0 mm 1 mps 726 mmHg 71%

    27 October, Friday

    Time Temperature Precipitation Wind Pressure Humidity
    00:00 +11°C° 0 mm 1 mps 726 mmHg 73%
    01:00 +11°C° 0 mm 1 mps 726 mmHg 75%
    02:00 +11°C° 0 mm 1 mps 725 mmHg 77%
    03:00 +11°C° 0 mm 1 mps 725 mmHg 77%
    04:00 +11°C° 0 mm 1 mps 725 mmHg 78%
    05:00 +11°C° 0 mm 1 mps 725 mmHg 79%
    06:00 +11°C° 0 mm 1 mps 725 mmHg 77%
    07:00 +12°C° 0 mm 1 mps 725 mmHg 75%
    08:00 +12°C° 0 mm 1 mps 724 mmHg 72%
    09:00 +15°C° 0 mm 1 mps 724 mmHg 63%
    10:00 +18°C° 0 mm 1 mps 724 mmHg 53%
    11:00 +20°C° 0 mm 1 mps 724 mmHg 44%
    12:00 +21°C° 0 mm 1 mps 724 mmHg 42%
    13:00 +22°C° 0 mm 1 mps 723 mmHg 40%
    14:00 +21°C° 0 mm 2 mps 722 mmHg 37%
    15:00 +21°C° 0 mm 1 mps 722 mmHg 42%
    16:00 +20°C° 0 mm 1 mps 721 mmHg 48%
    17:00 +19°C° 0 mm 1 mps 720 mmHg 53%
    18:00 +16°C° 0 mm 1 mps 720 mmHg 55%
    19:00 +15°C° 0 mm 1 mps 720 mmHg 57%
    20:00 +14°C° 0 mm 1 mps 719 mmHg 60%
    21:00 +14°C° 0 mm 1 mps 719 mmHg 60%
    22:00 +13°C° 0 mm 1 mps 718 mmHg 61%
    23:00 +13°C° 0 mm 1 mps 718 mmHg 61%
    Show more